Location: Newark
(34.1333°N, 7.9667°W)
Time: 02:34:47
(UTC+00:00)

Vanguard 1 Rocket - Visible Passes

Search period start: 04 December 2021 00:00
Search period end: 14 December 2021 00:00
Orbit: 650 x 4226 km, 34.3° (Epoch: 03 December)

Date Brightness Start Highest point End Pass type
(mag) Time Alt. Az. Time Alt. Az. Time Alt. Az.
04 Dec 10.9 01:33:17 19° E 01:33:17 19° E 01:37:30 10° ENE visible
04 Dec 9.2 03:50:35 85° SSW 03:50:57 86° SSE 04:12:27 10° E visible
04 Dec 10.3 06:07:51 17° W 06:21:49 86° SSW 06:48:06 10° ESE visible
05 Dec 9.9 02:43:21 47° E 02:43:21 47° E 02:55:57 10° ENE visible
05 Dec 9.5 05:00:37 43° W 05:07:21 90° N 05:31:41 10° E visible
06 Dec 10.9 01:36:06 19° E 01:36:06 19° E 01:40:03 10° ENE visible
06 Dec 9.2 03:53:23 88° WSW 03:53:40 90° S 04:14:53 10° E visible
06 Dec 10.2 06:10:40 17° W 06:24:20 81° SSW 06:50:18 10° ESE visible
07 Dec 9.9 02:46:09 46° E 02:46:09 46° E 02:58:22 10° E visible
07 Dec 9.5 05:03:25 43° W 05:10:01 88° S 05:34:04 10° ESE visible
08 Dec 10.9 01:38:53 19° E 01:38:53 19° E 01:42:35 10° ENE visible
08 Dec 9.1 03:56:10 87° WNW 03:56:26 89° N 04:17:20 10° E visible
08 Dec 10.2 06:13:27 17° W 06:26:47 75° SSW 06:52:21 10° ESE visible
09 Dec 9.9 02:48:55 46° E 02:48:55 46° E 03:00:49 10° E visible
09 Dec 9.4 05:06:11 43° W 05:12:40 84° SSW 05:36:21 10° ESE visible
10 Dec 10.9 01:41:40 18° E 01:41:40 18° E 01:45:05 10° E visible
10 Dec 9.1 03:58:56 88° W 03:59:12 90° NNW 04:19:45 10° E visible
10 Dec 10.2 06:16:13 16° W 06:29:13 68° SSW 06:54:09 10° SE visible
11 Dec 9.9 02:51:42 45° E 02:51:42 45° E 03:03:18 10° E visible
11 Dec 9.4 05:08:58 42° W 05:15:16 79° SSW 05:38:29 10° ESE visible
12 Dec 10.9 01:44:27 18° E 01:44:27 18° E 01:47:36 10° E visible
12 Dec 9.1 04:01:44 86° SW 04:01:58 87° S 04:22:07 10° ESE visible
12 Dec 10.2 06:19:01 16° W 06:31:38 60° SSW 06:55:41 10° SE visible
13 Dec 9.9 02:54:30 45° E 02:54:30 45° E 03:05:48 10° E visible
13 Dec 9.4 05:11:47 41° W 05:17:52 71° SSW 05:40:25 10° ESE visible
